• In Russia
  • List of Countries
  • For 7 days
  • Water Temperature
  • Satellite Maps
  • Weather Map
  • Weather Widgets
  • user-avatar
    Login

    Hourly Weather Luksor

    Today, 24 February, Saturday

    Time Temperature Precipitation Wind Pressure Humidity
    00:00 +25°C° 0 mm 2 mps 747 mmHg 37%
    01:00 +25°C° 0 mm 2 mps 747 mmHg 38%
    02:00 +24°C° 0 mm 2 mps 747 mmHg 44%
    03:00 +24°C° 0 mm 1 mps 747 mmHg 44%
    04:00 +24°C° 0 mm 1 mps 748 mmHg 44%
    05:00 +24°C° 0 mm 1 mps 748 mmHg 44%
    06:00 +24°C° 0 mm 2 mps 748 mmHg 42%
    07:00 +25°C° 0 mm 2 mps 748 mmHg 41%
    08:00 +25°C° 0 mm 2 mps 749 mmHg 39%
    09:00 +27°C° 0 mm 3 mps 749 mmHg 34%
    10:00 +28°C° 0 mm 4 mps 749 mmHg 29%
    11:00 +30°C° 0 mm 5 mps 750 mmHg 24%
    12:00 +32°C° 0 mm 5 mps 749 mmHg 21%
    13:00 +32°C° 0 mm 6 mps 749 mmHg 17%
    14:00 +33°C° 0 mm 6 mps 749 mmHg 13%
    15:00 +32°C° 0 mm 6 mps 749 mmHg 13%
    16:00 +32°C° 0 mm 7 mps 749 mmHg 13%
    17:00 +30°C° 0 mm 7 mps 749 mmHg 13%
    18:00 +29°C° 0 mm 6 mps 750 mmHg 15%
    19:00 +27°C° 0 mm 5 mps 750 mmHg 17%
    20:00 +25°C° 0 mm 4 mps 750 mmHg 19%
    21:00 +25°C° 0 mm 3 mps 750 mmHg 19%
    22:00 +24°C° 0 mm 3 mps 751 mmHg 20%
    23:00 +23°C° 0 mm 2 mps 751 mmHg 21%

    Tomorrow, 25 February, Sunday

    Time Temperature Precipitation Wind Pressure Humidity
    00:00 +21°C° 0 mm 2 mps 751 mmHg 22%
    01:00 +20°C° 0 mm 2 mps 751 mmHg 23%
    02:00 +20°C° 0 mm 1 mps 751 mmHg 23%
    03:00 +20°C° 0 mm 1 mps 751 mmHg 24%
    04:00 +19°C° 0 mm 1 mps 751 mmHg 25%
    05:00 +16°C° 0 mm 0 mps 751 mmHg 26%
    06:00 +20°C° 0 mm 1 mps 751 mmHg 23%
    07:00 +22°C° 0 mm 1 mps 751 mmHg 20%
    08:00 +23°C° 0 mm 1 mps 752 mmHg 18%
    09:00 +25°C° 0 mm 1 mps 752 mmHg 16%
    10:00 +27°C° 0 mm 1 mps 752 mmHg 14%
    11:00 +28°C° 0 mm 1 mps 752 mmHg 12%
    12:00 +29°C° 0 mm 1 mps 751 mmHg 11%
    13:00 +30°C° 0 mm 1 mps 750 mmHg 10%
    14:00 +31°C° 0 mm 1 mps 750 mmHg 10%
    15:00 +31°C° 0 mm 2 mps 750 mmHg 10%
    16:00 +31°C° 0 mm 2 mps 749 mmHg 10%
    17:00 +31°C° 0 mm 2 mps 749 mmHg 10%
    18:00 +29°C° 0 mm 2 mps 749 mmHg 12%
    19:00 +27°C° 0 mm 1 mps 750 mmHg 13%
    20:00 +26°C° 0 mm 1 mps 750 mmHg 15%
    21:00 +25°C° 0 mm 1 mps 750 mmHg 15%
    22:00 +25°C° 0 mm 1 mps 749 mmHg 16%
    23:00 +25°C° 0 mm 1 mps 749 mmHg 16%

    Day after tomorrow, 26 February, Monday

    Time Temperature Precipitation Wind Pressure Humidity
    00:00 +24°C° 0 mm 1 mps 749 mmHg 16%
    01:00 +24°C° 0 mm 1 mps 749 mmHg 16%
    02:00 +24°C° 0 mm 1 mps 749 mmHg 17%
    03:00 +23°C° 0 mm 1 mps 748 mmHg 17%
    04:00 +23°C° 0 mm 1 mps 748 mmHg 18%
    05:00 +22°C° 0 mm 1 mps 748 mmHg 18%
    06:00 +24°C° 0 mm 1 mps 748 mmHg 17%
    07:00 +25°C° 0 mm 1 mps 749 mmHg 16%
    08:00 +26°C° 0 mm 1 mps 749 mmHg 15%
    09:00 +28°C° 0 mm 2 mps 749 mmHg 14%
    10:00 +29°C° 0 mm 2 mps 749 mmHg 13%
    11:00 +30°C° 0 mm 3 mps 749 mmHg 13%
    12:00 +31°C° 0 mm 3 mps 748 mmHg 13%
    13:00 +33°C° 0 mm 4 mps 748 mmHg 12%
    14:00 +34°C° 0 mm 4 mps 747 mmHg 12%
    15:00 +33°C° 0 mm 4 mps 747 mmHg 13%
    16:00 +33°C° 0 mm 4 mps 747 mmHg 13%
    17:00 +33°C° 0 mm 4 mps 747 mmHg 14%
    18:00 +30°C° 0 mm 4 mps 747 mmHg 15%
    19:00 +29°C° 0 mm 4 mps 748 mmHg 16%
    20:00 +27°C° 0 mm 4 mps 749 mmHg 17%
    21:00 +26°C° 0 mm 3 mps 749 mmHg 19%
    22:00 +25°C° 0 mm 3 mps 749 mmHg 20%
    23:00 +25°C° 0 mm 3 mps 750 mmHg 22%

    27 February, Tuesday

    Time Temperature Precipitation Wind Pressure Humidity
    00:00 +24°C° 0 mm 3 mps 749 mmHg 25%
    01:00 +22°C° 0 mm 3 mps 749 mmHg 28%
    02:00 +21°C° 0 mm 2 mps 749 mmHg 31%
    03:00 +21°C° 0 mm 2 mps 749 mmHg 33%
    04:00 +21°C° 0 mm 2 mps 749 mmHg 34%
    05:00 +20°C° 0 mm 2 mps 749 mmHg 36%
    06:00 +21°C° 0 mm 2 mps 750 mmHg 34%
    07:00 +23°C° 0 mm 2 mps 750 mmHg 32%
    08:00 +25°C° 0 mm 2 mps 751 mmHg 29%
    09:00 +26°C° 0 mm 2 mps 751 mmHg 26%
    10:00 +28°C° 0 mm 3 mps 751 mmHg 23%
    11:00 +29°C° 0 mm 3 mps 751 mmHg 19%
    12:00 +30°C° 0 mm 3 mps 750 mmHg 18%
    13:00 +30°C° 0 mm 3 mps 750 mmHg 17%
    14:00 +31°C° 0 mm 3 mps 749 mmHg 15%
    15:00 +32°C° 0 mm 4 mps 749 mmHg 15%
    16:00 +32°C° 0 mm 4 mps 749 mmHg 15%
    17:00 +30°C° 0 mm 4 mps 749 mmHg 15%
    18:00 +29°C° 0 mm 4 mps 750 mmHg 17%
    19:00 +28°C° 0 mm 3 mps 750 mmHg 19%
    20:00 +26°C° 0 mm 3 mps 751 mmHg 20%
    21:00 +25°C° 0 mm 3 mps 751 mmHg 21%
    22:00 +24°C° 0 mm 3 mps 751 mmHg 23%
    23:00 +24°C° 0 mm 3 mps 751 mmHg 24%

    28 February, Wednesday

    Time Temperature Precipitation Wind Pressure Humidity
    00:00 +23°C° 0 mm 2 mps 751 mmHg 26%
    01:00 +21°C° 0 mm 2 mps 751 mmHg 28%
    02:00 +20°C° 0 mm 2 mps 751 mmHg 29%
    03:00 +20°C° 0 mm 2 mps 751 mmHg 31%
    04:00 +19°C° 0 mm 2 mps 751 mmHg 32%
    05:00 +19°C° 0 mm 2 mps 751 mmHg 33%
    06:00 +20°C° 0 mm 2 mps 751 mmHg 31%
    07:00 +21°C° 0 mm 2 mps 752 mmHg 29%
    08:00 +23°C° 0 mm 1 mps 752 mmHg 28%
    09:00 +25°C° 0 mm 2 mps 752 mmHg 24%
    10:00 +26°C° 0 mm 2 mps 752 mmHg 21%
    11:00 +28°C° 0 mm 2 mps 751 mmHg 18%
    12:00 +28°C° 0 mm 3 mps 751 mmHg 16%
    13:00 +29°C° 0 mm 4 mps 750 mmHg 14%
    14:00 +30°C° 0 mm 5 mps 749 mmHg 12%
    15:00 +30°C° 0 mm 5 mps 749 mmHg 12%
    16:00 +29°C° 0 mm 5 mps 749 mmHg 12%
    17:00 +29°C° 0 mm 5 mps 749 mmHg 12%
    18:00 +28°C° 0 mm 5 mps 749 mmHg 13%
    19:00 +26°C° 0 mm 4 mps 750 mmHg 14%
    20:00 +25°C° 0 mm 4 mps 750 mmHg 16%
    21:00 +23°C° 0 mm 4 mps 750 mmHg 17%
    22:00 +22°C° 0 mm 3 mps 751 mmHg 18%
    23:00 +22°C° 0 mm 3 mps 751 mmHg 19%

    1 March, Thursday

    Time Temperature Precipitation Wind Pressure Humidity
    00:00 +21°C° 0 mm 3 mps 751 mmHg 20%
    01:00 +20°C° 0 mm 3 mps 750 mmHg 21%
    02:00 +20°C° 0 mm 3 mps 750 mmHg 22%
    03:00 +19°C° 0 mm 3 mps 750 mmHg 23%
    04:00 +19°C° 0 mm 3 mps 750 mmHg 25%
    05:00 +18°C° 0 mm 3 mps 750 mmHg 26%
    06:00 +19°C° 0 mm 3 mps 751 mmHg 25%
    07:00 +20°C° 0 mm 4 mps 751 mmHg 24%
    08:00 +21°C° 0 mm 4 mps 752 mmHg 23%
    09:00 +23°C° 0 mm 6 mps 751 mmHg 20%
    10:00 +26°C° 0 mm 7 mps 751 mmHg 17%
    11:00 +28°C° 0 mm 8 mps 751 mmHg 14%
    12:00 +29°C° 0 mm 8 mps 751 mmHg 12%
    13:00 +31°C° 0 mm 9 mps 750 mmHg 11%
    14:00 +32°C° 0 mm 9 mps 750 mmHg 9%
    15:00 +32°C° 0 mm 9 mps 750 mmHg 9%
    16:00 +31°C° 0 mm 8 mps 750 mmHg 9%
    17:00 +31°C° 0 mm 8 mps 750 mmHg 9%
    18:00 +28°C° 0 mm 7 mps 751 mmHg 10%
    19:00 +27°C° 0 mm 5 mps 751 mmHg 11%
    20:00 +25°C° 0 mm 4 mps 751 mmHg 12%
    21:00 +23°C° 0 mm 4 mps 752 mmHg 14%
    22:00 +22°C° 0 mm 3 mps 752 mmHg 15%
    23:00 +21°C° 0 mm 3 mps 752 mmHg 17%
    Show more